Location: Ammareddip?lem
(16.9681°N, 80.4999°E)
Time: 19:00:59
(UTC+00:00)

Envisat - Visible Passes

Search period start: 19 October 2021 00:00
Search period end: 29 October 2021 00:00
Orbit: 764 x 766 km, 98.2° (Epoch: 19 October)

Date Brightness Start Highest point End Pass type
(mag) Time Alt. Az. Time Alt. Az. Time Alt. Az.
19 Oct 5.6 22:37:48 10° NE 22:41:27 20° E 22:45:04 10° SE visible
20 Oct 2.9 23:38:32 10° N 23:43:35 74° WNW 23:48:37 10° SSW visible
21 Oct 4.4 23:02:03 10° NNE 23:06:47 40° E 23:11:30 10° S visible
22 Oct 6.0 22:27:10 10° ENE 22:29:54 14° E 22:32:36 10° SE visible
23 Oct 3.5 00:04:12 10° N 00:08:48 36° WNW 00:13:24 10° SW visible
23 Oct 3.1 23:27:00 10° NNE 23:32:05 82° ESE 23:37:09 10° S visible
24 Oct 4.9 22:50:52 10° NE 22:55:15 29° E 22:59:37 10° SSE visible
25 Oct 6.3 22:17:49 10° E 22:18:20 10° E 22:18:51 10° ESE visible
25 Oct 3.2 23:52:27 10° N 23:57:19 49° WNW 00:02:11 10° SSW visible
26 Oct 3.6 23:15:34 10° NNE 23:20:34 60° ESE 23:25:34 10° S visible
27 Oct 5.4 22:39:52 10° NE 22:43:43 22° E 22:47:33 10° SSE visible
28 Oct 2.9 23:40:48 10° N 23:45:50 67° WNW 23:50:52 10° SSW visible
